This is the latest recevied weather packets stored in our database for station/object EA3HRE-13. If no packets are shown the sender has not sent any weather packets the latest 10 day(s).
| Time | Temp. | Humidity | Pressure | Rain* | Wind** | Luminosity | Snow |
|---|---|---|---|---|---|---|---|
| 1777830777 | 17.78° C | 100% | 1014.2 hPa | 0 mm | - | - | - |
| 1777830147 | 17.78° C | 100% | 1014.2 hPa | 0 mm | - | - | - |
| 1777829547 | 18.33° C | 100% | 1014.4 hPa | 0 mm | - | - | - |
| 1777828917 | 18.33° C | 100% | 1014.4 hPa | 0 mm | - | - | - |
| 1777828317 | 18.33° C | 100% | 1014.3 hPa | 0 mm | - | - | - |
| 1777827717 | 18.33° C | 100% | 1014.1 hPa | 0 mm | - | - | - |
| 1777827117 | 18.89° C | 100% | 1013.9 hPa | 0 mm | - | - | - |
| 1777826517 | 18.89° C | 100% | 1013.8 hPa | 0 mm | - | - | - |
| 1777825917 | 18.89° C | 100% | 1013.7 hPa | 0 mm | - | - | - |
| 1777825317 | 19.44° C | 100% | 1013.6 hPa | 0 mm | - | - | - |
| 1777824717 | 19.44° C | 100% | 1013.7 hPa | 0 mm | - | - | - |
| 1777824117 | 19.44° C | 100% | 1013.7 hPa | 0 mm | - | - | - |
| 1777823486 | 19.44° C | 100% | 1013.8 hPa | 0 mm | - | - | - |
| 1777822886 | 19.44° C | 100% | 1013.8 hPa | 0 mm | - | - | - |
| 1777822286 | 20° C | 100% | 1013.8 hPa | 0 mm | - | - | - |
| 1777821686 | 20° C | 100% | 1013.9 hPa | 0 mm | - | - | - |
| 1777821086 | 20° C | 100% | 1014 hPa | 0 mm | - | - | - |
| 1777820486 | 20.56° C | 100% | 1014 hPa | 0 mm | - | - | - |
| 1777819886 | 21.11° C | 100% | 1119.4 hPa | 0 mm | - | - | - |
| 1777819286 | 21.11° C | 100% | 1013.9 hPa | 0 mm | - | - | - |
| 1777818686 | 21.11° C | 100% | 1013.8 hPa | 0 mm | - | - | - |
| 1777818056 | 21.11° C | 100% | 1013.3 hPa | 0 mm | - | - | - |
| 1777817455 | 21.11° C | 100% | 1013.9 hPa | 0 mm | - | - | - |
| 1777816855 | 21.11° C | 100% | 1014.2 hPa | 0 mm | - | - | - |
| 1777816255 | 20.56° C | 100% | 1014.5 hPa | 0 mm | - | - | - |
* Rain latest hour (hover to see other rain measurements)
** Current wind speed in m/s (hover to see current wind gust speed)